User: anonymous   Login
Location: Unspecified
(0.0000°N, 0.0000°E)
Time: 15:37:17
(UTC+02:00)
Language:

Cosmos 1892 Rocket - Orbit

View from above orbital plane
View from above orbital plane
View from above satellite
View from above satellite

Ground track
Ground track

The orbit data is extracted from the following two-line orbital elements,

1 18422U 87088B   15184.88493440  .00000177  00000-0  19028-4 0  9996
2 18422 082.5127 126.1263 0018087 272.0359 144.6192 14.82737518495963
Epoch (UTC): 03 July 2015 21:14:18
Eccentricity: 0.0018087
inclination: 82.5127°
perigee height: 608 km
apogee height: 633 km
right ascension of ascending node: 126.1263°
argument of perigee: 272.0359°
revolutions per day: 14.82737518
mean anomaly at epoch: 144.6192°
orbit number at epoch: 49596

The dashed part of the orbit path shows where the satellite is in the earth's shadow,  

DLR